Humidity-temperature Sensor

Selected Measurement Type: Air Temperature

 
Air Temperature [°C]     6 entries per hour
Showing data from 10/11/2018 (00:00:00 Z) to 10/8/2018 (00:01:00 Z)
Previous Next [ Day | 3-Days | 7-Days ]
First Last
Prev [ Day | 3-Days | 7-Days ] Next
First Last

Start Time:     :
End Time:     :     
Time (in GMT) :00 :50 :40 :30 :20 :10
Previous Next [ Day | 3-Days | 7-Days ]
First Last
Prev [ Day | 3-Days | 7-Days ] Next
First Last


123 => good data
MM => data is determined as missing
-- => data not received/configured
Back to Top Back to Top
10/11/2018 00:00 to 23:10 23.79 23.84 23.78 23.85 23.86 23.83
10/10/2018 23:00 to 22:10 23.85 23.79 23.68 23.90 23.85 23.88
10/10/2018 22:00 to 21:10 24.08 24.05 24.02 23.96 23.97 23.94
10/10/2018 21:00 to 20:10 24.00 23.94 24.02 23.87 23.86 24.01
10/10/2018 20:00 to 19:10 24.02 24.16 23.95 23.98 23.86 24.00
10/10/2018 19:00 to 18:10 23.76 23.74 23.76 23.89 23.94 24.05
10/10/2018 18:00 to 17:10 23.90 23.88 23.82 24.00 23.91 24.10
10/10/2018 17:00 to 16:10 23.90 23.91 24.05 24.03 24.07 24.08
10/10/2018 16:00 to 15:10 23.95 23.89 23.85 23.91 23.76 23.88
10/10/2018 15:00 to 14:10 23.90 23.94 24.17 24.06 24.05 24.10
10/10/2018 14:00 to 13:10 24.10 24.01 24.02 23.47 23.32 23.33
10/10/2018 13:00 to 12:10 23.17 23.35 23.13 23.09 23.09 23.00
10/10/2018 12:00 to 11:10 23.17 23.13 23.31 23.45 23.38 23.27
10/10/2018 11:00 to 10:10 23.16 23.34 23.02 23.09 22.94 23.15
10/10/2018 10:00 to 9:10 22.93 22.98 23.02 22.96 22.94 23.18
10/10/2018 09:00 to 8:10 23.00 23.13 23.16 23.14 23.07 23.08
10/10/2018 08:00 to 7:10 23.12 23.01 23.18 23.15 23.10 23.31
10/10/2018 07:00 to 6:10 23.24 23.13 23.13 23.24 23.39 23.20
10/10/2018 06:00 to 5:10 23.18 23.31 23.27 23.33 23.24 23.34
10/10/2018 05:00 to 4:10 23.37 23.21 23.27 23.32 23.27 23.21
10/10/2018 04:00 to 3:10 23.21 23.20 23.21 23.27 23.35 23.24
10/10/2018 03:00 to 2:10 23.37 23.32 23.22 23.28 23.29 23.25
10/10/2018 02:00 to 1:10 23.27 23.32 23.34 23.23 23.35 23.41
10/10/2018 01:00 to 0:10 23.28 23.18 23.37 23.30 23.17 23.26
10/10/2018 00:00 to 23:10 23.36 23.27 23.32 23.19 23.43 23.37
10/9/2018 23:00 to 22:10 23.42 23.33 23.20 23.30 23.18 23.10
10/9/2018 22:00 to 21:10 23.34 23.08 22.60 23.03 23.27 23.15
10/9/2018 21:00 to 20:10 23.22 23.38 23.21 23.19 23.18 23.21
10/9/2018 20:00 to 19:10 23.11 23.24 23.17 23.05 23.13 23.24
10/9/2018 19:00 to 18:10 23.14 23.21 23.05 23.32 23.26 23.26
10/9/2018 18:00 to 17:10 23.08 23.06 23.23 23.05 22.91 23.13
10/9/2018 17:00 to 16:10 23.07 23.15 23.32 23.06 23.02 23.13
10/9/2018 16:00 to 15:10 22.93 23.09 22.85 23.13 23.26 23.24
10/9/2018 15:00 to 14:10 23.09 22.98 23.01 23.02 22.90 23.22
10/9/2018 14:00 to 13:10 22.74 22.77 22.73 22.78 22.87 22.59
10/9/2018 13:00 to 12:10 22.51 22.54 22.39 22.60 22.59 22.59
10/9/2018 12:00 to 11:10 22.66 22.71 22.60 22.64 22.71 22.59
10/9/2018 11:00 to 10:10 22.53 22.61 22.40 22.61 22.42 22.46
10/9/2018 10:00 to 9:10 22.45 22.33 22.30 22.30 22.37 22.47
10/9/2018 09:00 to 8:10 22.32 22.37 22.36 22.35 22.27 22.34
10/9/2018 08:00 to 7:10 22.28 22.51 22.32 22.27 22.42 22.58
10/9/2018 07:00 to 6:10 22.35 22.52 22.38 22.31 22.41 22.33
10/9/2018 06:00 to 5:10 22.49 22.49 22.24 22.35 22.56 22.63
10/9/2018 05:00 to 4:10 22.53 22.59 22.38 22.50 22.34 22.41
10/9/2018 04:00 to 3:10 22.50 22.39 22.61 22.53 22.38 22.44
10/9/2018 03:00 to 2:10 22.68 22.50 22.32 22.69 22.53 22.39
10/9/2018 02:00 to 1:10 22.25 22.23 22.40 22.36 22.40 22.21
10/9/2018 01:00 to 0:10 22.22 22.34 22.41 22.17 22.25 22.19
10/9/2018 00:00 to 23:10 22.25 22.34 22.15 22.25 22.33 22.29
10/8/2018 23:00 to 22:10 22.37 22.29 22.25 22.23 22.14 22.30
10/8/2018 22:00 to 21:10 22.23 22.13 22.14 22.17 22.17 22.14
10/8/2018 21:00 to 20:10 22.19 22.05 22.03 22.09 21.94 21.99
10/8/2018 20:00 to 19:10 22.06 22.05 22.10 22.06 22.07 22.04
10/8/2018 19:00 to 18:10 22.07 22.11 21.96 22.13 21.94 22.12
10/8/2018 18:00 to 17:10 22.05 21.95 22.02 21.90 22.00 21.89
10/8/2018 17:00 to 16:10 21.95 21.87 21.82 22.04 22.07 21.87
10/8/2018 16:00 to 15:10 21.81 21.81 21.79 21.74 21.81 21.94
10/8/2018 15:00 to 14:10 21.96 21.89 21.82 21.96 21.99 21.92
10/8/2018 14:00 to 13:10 21.98 22.03 21.99 22.11 22.21 22.20
10/8/2018 13:00 to 12:10 22.23 22.11 22.00 21.76 21.13 20.93
10/8/2018 12:00 to 11:10 21.12 21.20 20.96 20.99 21.01 21.15
10/8/2018 11:00 to 10:10 21.01 20.94 21.05 21.00 21.06 21.05
10/8/2018 10:00 to 9:10 20.98 21.01 21.12 21.06 21.22 21.07
10/8/2018 09:00 to 8:10 21.15 21.16 21.23 21.17 21.11 21.15
10/8/2018 08:00 to 7:10 21.22 21.20 21.22 21.19 21.37 21.27
10/8/2018 07:00 to 6:10 21.37 21.37 21.45 21.36 21.44 21.60
10/8/2018 06:00 to 5:10 21.49 21.45 21.50 21.43 21.65 21.69
10/8/2018 05:00 to 4:10 21.67 21.58 21.69 21.69 21.57 21.57
10/8/2018 04:00 to 3:10 21.52 21.61 21.63 21.67 21.66 21.66
10/8/2018 03:00 to 2:10 21.69 21.68 21.57 21.51 21.66 21.53
10/8/2018 02:00 to 1:10 21.55 21.68 21.72 21.67 21.60 21.76
10/8/2018 01:00 to 0:10 21.67 21.62 21.72 21.64 21.63 21.73